Location: Pedholt
(56.0260°N, 10.2097°E)
Time: 03:11:56
(UTC+00:00)

SR - Pass Details

Date: 28 July 2021
Orbit: 581 x 874 km, 66.7° (Epoch: 21 September)

Event Time Altitude Azimuth Distance (km) Brightness Sun altitude
Rises 12:16:11 0° 307° (NW) 3,287 ? 51.6°
Reaches altitude 10° 12:18:56 10° 317° (NW) 2,306 ? 51.5°
Maximum altitude 12:23:38 32° 21° (NNE) 1,220 ? 51.3°
Drops below altitude 10° 12:28:00 10° 85° (E) 2,123 ? 51.0°
Sets 12:30:26 0° 96° (E) 2,988 ? 50.9°
